Weather History for KVQQ - February, 2013

Change the Weather History Date:

Monday, February 25, 2013

  Actual Average (KJAX) Record (KJAX)
Temperature  
Mean Temperature 60 °F 58 °F  
Max Temperature 66 °F 70 °F 85 °F (2001)
Min Temperature 55 °F 47 °F 24 °F (1989)
Degree Days  
Heating Degree Days 4 8  
Month to date heating degree days 235  
Since 1 July heating degree days 1111  
Cooling Degree Days 0 1  
Month to date cooling degree days 20  
Year to date cooling degree days 31  
Growing Degree Days 10 (Base 50)    
Moisture  
Dew Point 60 °F    
Average Humidity 99    
Maximum Humidity 100    
Minimum Humidity 77    
Precipitation  
Precipitation 0.06 in 0.13 in 3.20 in (2013)
Month to date precipitation 2.83  
Year to date precipitation 6.13  
Snow  
Snow 0.00 in 0.00 in 0.00 in (2002)
Month to date snowfall 0.0  
Since 1 July snowfall T  
Snow Depth -    
Sea Level Pressure  
Sea Level Pressure 29.90 in    
Wind  
Wind Speed 4 mph (NE)    
Max Wind Speed 15 mph    
Max Gust Speed 24 mph    
Visibility 6 miles    
Events Rain , Thunderstorm    
T = Trace of Precipitation, MM = Missing Value Source: NWS Daily Summary

Daily Weather History Graph

Daily Weather History Graph

Search for Another Location

Airport or City:

Trip Planner

Search our weather history database for the weather conditions in past years. The results will help you decide how hot, cold, wet, or windy it might be!

Date:

Astronomy

Feb. 25, 2013 Rise Set
Actual Time 6:57 AM EST 6:23 PM EST
Civil Twilight 6:33 AM EST 6:47 PM EST
Nautical Twilight 6:05 AM EST 7:15 PM EST
Astronomical Twilight 5:37 AM EST 7:43 PM EST
Moon 6:31 PM EST (2/25) 6:29 AM EST (2/25)
Length of Visible Light 12h 14m
Length of Day
11h 26m
Full, 100% of the Moon is Illuminated
Feb 25
Full
Feb 25
Full
Mar 4
Last Quarter
Mar 11
New
Mar 19
First Quarter

Hourly Weather History & Observations

Time (EST) Temp. Dew Point Humidity Pressure Visibility Wind Dir Wind Speed Gust Speed Precip Events Conditions
12:15 AM 55.4 °F 51.8 °F 88% 29.95 in 10.0 mi Calm Calm - N/A   Partly Cloudy
12:35 AM 57.2 °F 50.0 °F 77% 29.94 in 10.0 mi East 3.5 mph - N/A   Clear
12:55 AM 55.4 °F 53.6 °F 94% 29.95 in 10.0 mi Calm Calm - N/A   Clear
1:15 AM 55.4 °F 55.4 °F 100% 29.95 in 10.0 mi Calm Calm - N/A   Clear
1:35 AM 55.4 °F 55.4 °F 100% 29.95 in 10.0 mi Calm Calm - N/A   Clear
1:55 AM 55.4 °F 55.4 °F 100% 29.93 in 10.0 mi Calm Calm - N/A Rain , Thunderstorm Light Rain
2:15 AM 55.4 °F 55.4 °F 100% 29.93 in 10.0 mi Calm Calm - N/A Rain Light Rain
2:55 AM 57.2 °F 55.4 °F 94% 29.92 in 5.0 mi Calm Calm - N/A Rain Light Rain
3:15 AM 57.2 °F 57.2 °F 100% 29.91 in 8.0 mi Calm Calm - N/A Rain Light Rain
3:35 AM 57.2 °F 57.2 °F 100% 29.90 in 5.0 mi Calm Calm - N/A Rain Light Rain
3:55 AM 57.2 °F 57.2 °F 100% 29.91 in 8.0 mi Calm Calm - N/A Rain Light Rain
4:15 AM 59.0 °F 59.0 °F 100% 29.89 in 5.0 mi NE 3.5 mph - N/A Rain Light Rain
4:35 AM 59.0 °F 59.0 °F 100% 29.91 in 10.0 mi Calm Calm - N/A Rain Light Rain
4:55 AM 59.0 °F 59.0 °F 100% 29.91 in 6.0 mi Calm Calm - N/A Rain Light Rain
5:15 AM 59.0 °F 59.0 °F 100% 29.90 in 5.0 mi Calm Calm - N/A Rain Light Rain
5:35 AM 59.0 °F 59.0 °F 100% 29.90 in 6.0 mi ENE 3.5 mph - N/A Rain , Thunderstorm Light Rain
5:55 AM 59.0 °F 59.0 °F 100% 29.91 in 4.0 mi North 6.9 mph - 0.02 in Rain , Thunderstorm Light Rain
6:15 AM 59.0 °F 59.0 °F 100% 29.91 in 3.0 mi NE 5.8 mph - N/A Rain , Thunderstorm Light Rain
6:35 AM 59.0 °F 59.0 °F 100% 29.92 in 1.8 mi NNE 11.5 mph - 0.03 in Rain , Thunderstorm Light Rain
6:50 AM 59.0 °F 59.0 °F 100% 29.90 in 1.8 mi NNE 15.0 mph - N/A   Overcast
7:50 AM 59.0 °F 59.0 °F 100% 29.93 in 2.5 mi NNE 13.8 mph - N/A Rain Rain
8:10 AM 59.0 °F 59.0 °F 100% 29.91 in 3.0 mi ENE 13.8 mph 24.2 mph N/A Rain Light Rain
8:50 AM 60.8 °F 60.8 °F 100% 29.94 in 5.0 mi East 9.2 mph - N/A   Mostly Cloudy
9:50 AM 62.6 °F 62.6 °F 100% 29.93 in 7.0 mi ENE 15.0 mph - N/A   Mostly Cloudy
10:50 AM 62.6 °F 60.8 °F 94% 29.92 in 7.0 mi ENE 11.5 mph - N/A   Overcast
11:50 AM 62.6 °F 62.6 °F 100% 29.93 in 7.0 mi East 8.1 mph - N/A   Overcast
12:50 PM 62.6 °F 60.8 °F 94% 29.94 in 3.0 mi Variable 4.6 mph - N/A Rain Rain
1:50 PM 60.8 °F 60.8 °F 100% 29.88 in 7.0 mi ENE 8.1 mph - N/A   Mostly Cloudy
2:50 PM 60.8 °F 60.8 °F 100% 29.88 in 4.0 mi ENE 11.5 mph - N/A Rain Light Rain
3:50 PM 62.6 °F 62.6 °F 100% 29.86 in 7.0 mi ENE 13.8 mph - N/A   Overcast
4:50 PM 62.6 °F 62.6 °F 100% 29.86 in 4.0 mi NE 10.4 mph - N/A Rain Light Rain
5:50 PM 62.6 °F 60.8 °F 94% 29.92 in 2.0 mi West 12.7 mph - N/A Rain Rain
6:50 PM 59.0 °F 59.0 °F 100% 29.90 in 1.5 mi NE 13.8 mph - N/A Rain Light Rain
7:50 PM 59.0 °F 59.0 °F 100% 29.88 in 4.0 mi NE 9.2 mph - N/A Rain Light Rain
8:15 PM 60.8 °F 60.8 °F 100% 29.87 in 4.0 mi NE 8.1 mph - N/A Rain Light Rain
8:35 PM 62.6 °F 62.6 °F 100% 29.87 in 4.0 mi NE 3.5 mph - N/A Rain Light Rain
8:55 PM 62.6 °F 62.6 °F 100% 29.86 in 3.0 mi NE 6.9 mph - 0.01 in Rain Light Rain
9:15 PM 62.6 °F 62.6 °F 100% 29.85 in 7.0 mi NE 6.9 mph - N/A   Overcast
9:35 PM 62.6 °F 62.6 °F 100% 29.84 in 8.0 mi ENE 5.8 mph - N/A   Overcast
9:55 PM 64.4 °F 64.4 °F 100% 29.85 in 8.0 mi Calm Calm - N/A   Overcast
10:15 PM 64.4 °F 64.4 °F 100% 29.84 in 7.0 mi NE 4.6 mph - N/A   Overcast
10:35 PM 64.4 °F 64.4 °F 100% 29.83 in 5.0 mi ENE 4.6 mph - N/A Rain Light Rain
10:55 PM 64.4 °F 64.4 °F 100% 29.83 in 7.0 mi Calm Calm - N/A   Overcast
11:15 PM 66.2 °F 66.2 °F 100% 29.83 in 7.0 mi ENE 4.6 mph - N/A   Overcast
11:55 PM 66.2 °F 66.2 °F 100% 29.81 in 6.0 mi East 5.8 mph - N/A   Mostly Cloudy